sat.trackr.live / text

‹ back to catalog

STARLINK-1331

NORAD 45578 · 2020-025AZ

PAYLOAD ACTIVE UNKNOWN

§ Identity

Operator
Country
US
Launch date
2020-04-22
Launch site
AFETR
Launch vehicle
Mass (kg)
RCS (m²)

Purposes: comms

External: N2YO · Heavens-Above · Gunter

§ Orbital elements

Epoch: 2026-05-25T03:14:45.813408Z

Period
92.28 min
Inclination
53.0470°
Eccentricity
0.0005690
Mean motion
15.60492556 rev/d
Perigee alt
382.4 km
Apogee alt
390.1 km
Semi-major
6,764.4 km
B*
7.9063e-4
RAAN
55.7446°
Arg perigee
62.0262°
Mean anomaly
298.1326°
Rev number
33,757

§ Raw data

STARLINK-13311 45578U 20025AZ  26145.13525247  .00066391  00000+0  79063-3 0  99972 45578  53.0470  55.7446 0005690  62.0262 298.1326 15.60492556337578

JSON: /api/v1/satellites/45578 · /tle

For live sub-satellite position, see the globe view (requires WebGL).

§ Visibility from observer

Set your observer location to see the next 7 days of passes ≥ 10°. The values pass through the URL so the page stays shareable.

No JS? Fill the form by hand. The geolocation button needs JavaScript.